Regional Weather Roundup
Issued by NWS Sterling, VA

Home | Current Version | Previous Version | Graphics & Text | Print | Product List | Glossary On
Versions: 1 2 3 4 5 6 7 8 9 10 11 12 13 14 15 16 17 18 19 20 21 22 23 24 25 26 27 28 29 30 31 32 33 34 35 36 37 38 39 40 41 42 43 44 45 46 47 48 49 50
000
ASUS41 KLWX 110510
RWRLWX

REGIONAL WEATHER ROUNDUP
NATIONAL WEATHER SERVICE BALTIMORE MD/WASHINGTON DC
1200 AM EST SUN DEC 11 2016

Note: "FAIR" indicates few or no clouds below 12,000 feet
with no significant weather and/or obstructions to visibility.
 TC=TEMPERATURE CELSIUS

 * =Non NWS site. Station does not report precipitation (e.g. rain,
    snow, etc.), thunder, or fog.

DCZ001-MDZ009-015-VAZ040>042-051-053>054-110600-
WASHINGTON METRO

CITY           SKY/WX    TMP DP  RH WIND       PRES   REMARKS
WASHINGTON NAT MOCLDY    29  14  53 CALM      30.54F
DULLES         MOCLDY    22  12  65 CALM      30.51F
ANDREWS AFB    PTCLDY    23  15  71 SW3       30.50F
QUANTICO       PTCLDY    27  20  75 W3        30.56F
COLLEGE PARK*  CLEAR     25  14  63 CALM      30.51F
LEESBURG*      PTCLDY    28  18  64 NW6       30.52S
GAITHERSBURG*  CLOUDY    19  10  68 W3        30.54S

$$

MDZ006>007-011-014-110600-
BALTIMORE METRO

CITY           SKY/WX    TMP DP  RH WIND       PRES   REMARKS
BWI AIRPORT    MOCLDY    25  14  63 CALM      30.51F
MD SCIENCE CTR   N/A     30  11  45 MISG      30.50F
ANNAPOLIS      CLEAR     30  13  49 W6        30.51F
FORT MEADE*    CLEAR     23  18  80 CALM      30.53F

$$

MDZ012-015-019>023-110600-
MARYLAND EASTERN SHORE

CITY           SKY/WX    TMP DP  RH WIND       PRES   REMARKS
OCEAN CITY     CLEAR     24  15  68 NW5       30.53F
SALISBURY      CLEAR     25  18  74 CALM      30.53S
BAY BRIDGE AP* CLEAR     30  16  55 MISG      30.52F
CAMBRIDGE*     CLEAR     27  18  69 CALM      30.53F
EASTON*        CLEAR     29  15  54 CALM      30.55F

$$

MDZ017>025-110600-
SOUTHERN MARYLAND

CITY           SKY/WX    TMP DP  RH WIND       PRES   REMARKS
PATUXENT RIVER CLEAR     30  14  51 N10       30.53F WCI  21
ST INIGOES     CLEAR     25  17  72 CALM      30.53F
LEONARDTOWN*   CLEAR     27  16  63 CALM      30.53F

$$

MDZ003>005-110600-
NORTH CENTRAL MARYLAND

CITY           SKY/WX    TMP DP  RH WIND       PRES   REMARKS
FREDERICK*     CLOUDY    25  19  80 S3        30.55R
HAGERSTOWN APT   N/A     25  13  60 S5        30.49R
WESTMINSTER*     N/A     21  12  68 CALM      30.47S

$$

MDZ501>502-110600-
WESTERN MARYLAND

CITY           SKY/WX    TMP DP  RH WIND       PRES   REMARKS
OAKLAND*       CLOUDY    14  10  85 S3        30.31S
CUMBERLAND*    NOT AVBL

$$

VAZ025>031-110600-
SHENANDOAH VALLEY

CITY           SKY/WX    TMP DP  RH WIND       PRES   REMARKS
WINCHESTER*    PTCLDY    21  14  73 CALM      30.49S
FRONT ROYAL*   FAIR      23  16  74 CALM      30.48F
LURAY*         FAIR      25  19  80 CALM      30.46F
NEW MARKET*    FAIR      21  16  79 CALM      30.45F
STAUNTON*      CLOUDY    22  16  78 CALM      30.46F
WAYNESBORO*    MOCLDY    23  13  65 CALM      30.44F

$$

WVZ021-048>050-054>055-110600-
EASTERN WEST VIRGINIA PANHANDLE

CITY           SKY/WX    TMP DP  RH WIND       PRES   REMARKS
MARTINSBURG    PTCLDY    22  13  68 CALM      30.50S
PETERSBURG*    CLOUDY    22  17  80 CALM      30.47F

$$

VAZ036>039-050-110600-
CENTRAL FOOTHILLS

CITY           SKY/WX    TMP DP  RH WIND       PRES   REMARKS
CHARLOTTESVILL PTCLDY    27  12  53 CALM      30.50S
CULPEPER*      CLOUDY    22  19  87 CALM      30.53S
ORANGE*          N/A     27  19  74 CALM      30.53R
GORDONSVILLE*  FAIR      23  19  82 CALM      30.51S
WARRENTON*     FAIR      23  15  74 CALM      30.51S

$$

VAZ055>057-110600-
NORTH AND CENTRAL PIEDMONT

CITY           SKY/WX    TMP DP  RH WIND       PRES   REMARKS
FREDERICKSBRG* PTCLDY    26  19  75 CALM      30.54S
STAFFORD*      MOCLDY    22  17  80 CALM      30.57F

$$

NCZ024-NYZ072-PAZ021-071-VAZ022-071-110600-
OTHER REGIONAL OBSERVATIONS

CITY           SKY/WX    TMP DP  RH WIND       PRES   REMARKS
NEW YORK CITY  CLEAR     30  16  56 W5        30.47F
PHILADELPHIA   PTCLDY    28  15  58 W6        30.51S
PITTSBURGH     CLOUDY    24  16  71 S3        30.42S
ROANOKE        CLOUDY    29  15  56 CALM      30.47F
RICHMOND       PTCLDY    26  15  63 NE5       30.53F
RALEIGH        CLEAR     27  17  66 CALM      30.52S

$$

ANZ530>537-110600-
MARINE OBSERVATIONS

STATION/POSITION TIME  TEMP    WIND        PRES
                       AIR SEA DIR/SP/G
                 (UTC) (F)     (DEG/KT/KT) (MB)
THOMAS PT LIGHT  0500   30 45  320/  8/  9   N/A
BALT KEY BRIDGE  0442   30     290/ 10/ 11 1033.2F
COVE POINT       0442   32      10/  8/ 14 1034.5F
LEWISETTA        0442   33 42  360/  5/  8 1034.2R
SOLOMONS ISLAND  0442   31 47  340/  7/  8   N/A
PINEY POINT      0448           50/  2/  3   N/A

$$




USA.gov is the U.S. government's official web portal to all federal, state and local government web resources and services.